Regional Weather Roundup
Issued by NWS

Home | Current Version | Previous Version | Graphics & Text | Print | Product List | Glossary On
Versions: 1 2 3 4 5 6 7 8 9 10 11 12 13 14 15 16 17 18 19 20 21 22 23 24 25 26 27 28 29 30 31 32 33 34 35 36 37 38 39 40 41 42 43 44 45 46 47 48 49 50
000
ASUS43 KLOT 241404
RWRIL

ILLINOIS REGIONAL WEATHER ROUNDUP
NATIONAL WEATHER SERVICE CHICAGO/ROMEOVILLE IL
900 AM CDT SUN SEP 24 2017

NOTE: "FAIR" INDICATES FEW OR NO CLOUDS BELOW 12,000 FEET WITH NO
SIGNIFICANT WEATHER AND/OR OBSTRUCTIONS TO VISIBILITY.

* THESE STATIONS ARE NOT UNDER NWS QUALITY CONTROL. THEY ALSO MAY NOT
  REPORT WEATHER SUCH AS PRECIPITATION OR FOG.

ILZ001-002-007-009-015-016-024-241500-
NORTHWEST ILLINOIS

CITY           SKY/WX    TMP DP  RH WIND       PRES   REMARKS
MOLINE         SUNNY     74  62  66 SE6       30.05R
STERLING*      SUNNY     75  65  70 VRB6      30.09R
SAVANNA*       SUNNY     73  64  74 SE3       30.07S
$$

ILZ003-004-008-010-011-017-018-241500-
NORTH CENTRAL ILLINOIS

CITY           SKY/WX    TMP DP  RH WIND       PRES   REMARKS
ROCKFORD       SUNNY     75  64  68 S5        30.10S
FREEPORT*      SUNNY     74  63  68 SE5       30.11R
ROCHELLE*      SUNNY     74  64  71 SE5       30.10S
DE KALB*       SUNNY     74  66  76 S5        30.12R
$$

ILZ005-006-012>014-019>023-241500-
NORTHEAST ILLINOIS

CITY           SKY/WX    TMP DP  RH WIND       PRES   REMARKS
CHICAGO-OHARE  SUNNY     79  63  57 SW5       30.09S HX  80
CHICAGO-MIDWAY SUNNY     79  64  60 S6        30.10R HX  81
AURORA         SUNNY     75  67  76 S6        30.11R
LANSING*       SUNNY     76  67  74 S3        30.11S
JOLIET*        SUNNY     76  67  72 CALM      30.11R
WAUKEGAN       SUNNY     77  68  73 SW7       30.09S HAZE
DUPAGE AIRPORT SUNNY     76  67  73 S7        30.10S
KANKAKEE*      SUNNY     74  66  76 SE3       30.12S
WHEELING       SUNNY     79  67  66 SW5       30.11R HX  81
MORRIS*        SUNNY     74  68  82 CALM      30.09S
NORTHERLY ISL    N/A     76  67  73 SE3         N/A
$$

LMZ740>746-241500-
SOUTHERN LAKE MICHIGAN

STATION/POSITION SKY/WX   TEMP    WIND        PRES    VSBY  WAVE
                          AIR SEA DIR/SP/G                  HT/PER
                          (F)     (DEG/KT/KT) (MB)    (MI)  (FT/S)
SOUTHERN BUOY              72 70  130/ 12/ 14 1018.8          1
WILMETTE HARBOR            72 71  170/  6/  8   N/A           1
HARRISON CRIB              74     170/  9/ 10   N/A
BURNHAM HARBOR             77                   N/A
CALUMET HARBOR             75     190/  3/  4 1018.6S
BURNS HARBOR               76     160/  5/  8 1020.0S
MICHIGAN CITY              76     130/  6/  7   N/A
MICHIGAN CITY 6N           73 72  180/  4/  6   N/A           1
ST. JOSEPH                 73 72  160/  8/ 10 1019.4R         1/ 2
$$

ILZ025>027-034>036-040-047-049-050-058-095>099-241500-
WEST-CENTRAL ILLINOIS

CITY           SKY/WX    TMP DP  RH WIND       PRES   REMARKS
QUINCY         SUNNY     75  64  68 S5        30.05R
GALESBURG*     SUNNY     72  64  75 E3        30.08S
MACOMB*        SUNNY     72  63  74 SE6       30.08S
$$

ILZ028>032-037-038-041>044-048-051>054-059>061-241500-
CENTRAL ILLINOIS

CITY           SKY/WX    TMP DP  RH WIND       PRES   REMARKS
BLOOMINGTON    SUNNY     75  66  73 S8        30.12R
DECATUR        SUNNY     74  64  71 SE5       30.10S
PEORIA         SUNNY     76  64  66 S6        30.08S
LACON*         SUNNY     74  64  71 CALM      30.08S
LINCOLN*       SUNNY     74  66  76 SE5       30.09R
SPRINGFIELD    SUNNY     77  65  66 S5        30.08S
TAYLORVILLE    NOT AVBL
$$

ILZ033-039-045-046-055>057-062-063-241500-
EAST-CENTRAL ILLINOIS

CITY           SKY/WX    TMP DP  RH WIND       PRES   REMARKS
CHAMPAIGN      SUNNY     76  64  66 E6        30.11R
MATTOON        SUNNY     75  66  73 SE5       30.09S
PARIS*         SUNNY     75  67  74 E5        30.11S
$$

ILZ079-100>102-241500-
SOUTHWEST ILLINOIS

CITY           SKY/WX    TMP DP  RH WIND       PRES   REMARKS
ALTON          SUNNY     72  66  83 E6        30.07S
BELLEVILLE     SUNNY     73  65  75 CALM      30.06R
CAHOKIA*       SUNNY     77  65  66 SE3       30.06S
SPARTA*        SUNNY     75  66  72 SE3       30.07S
$$

ILZ064>066-069>071-074>076-080>082-084>086-088>090-092>094-241500-
SOUTH-CENTRAL ILLINOIS

CITY           SKY/WX    TMP DP  RH WIND       PRES   REMARKS
CARBONDALE     SUNNY     74  69  85 CALM      30.06R
CAIRO*         SUNNY     75  70  85 E3        30.05S HAZE
EFFINGHAM*     SUNNY     77  66  67 E3        30.10S
MARION         SUNNY     77  68  73 SE7       30.07R
MT. VERNON       N/A     75  67  76 E5        30.08R
CENTRALIA*     SUNNY     78  67  68 E3        30.07R HX  80
SALEM*         SUNNY     76  65  68 E5        30.09R
METROPOLIS*    RAIN      76  69  78 CALM      30.06S
$$

ILZ067-068-072-073-078-083-087-091-241500-
SOUTHEAST ILLINOIS

CITY           SKY/WX    TMP DP  RH WIND       PRES   REMARKS
LAWRENCEVILLE  SUNNY     74  66  76 E3        30.09S
FLORA*         SUNNY     76  67  73 CALM      30.09R
FAIRFIELD*     SUNNY     77  65  68 CALM      30.07S
HARRISBURG*    SUNNY     76  68  75 E5        30.07S
ROBINSON*      SUNNY     71  66  82 CALM      30.11R
CARMI*         SUNNY     75  67  75 CALM      30.07S
$$

ABBREVIATIONS USED IN REMARKS
   TC - TEMPERATURE IN CELSIUS
  WCI - WIND CHILL INDEX
   HX - HEAT INDEX
  VSB - VISIBILITY
$$





USA.gov is the U.S. government's official web portal to all federal, state and local government web resources and services.